FW1310 Weather Reports


time (UTC)temp
F
wind
direction
speed
knots
gust
knots
rain 1hr
in
rain 24hr
in
rain mn
in
humidity
%
barometer
mb
20260902135003 82 283 1.7 5.2 0.00 0.00 0.00 72 999.6
20260902134503 82 237 1.7 4.3 0.00 0.00 0.00 73 999.5
20260902133504 81 181 0.9 1.7 0.00 0.00 0.00 75 999.6
20260902132503 80 219 0.9 1.7 0.00 0.00 0.00 76 999.3
20260902132003 80 139 0.9 1.7 0.00 0.00 0.00 77 999.3
20260902131503 80 143 0.9 1.7 0.00 0.00 0.00 77 999.3
20260902131003 79 146 0.9 0.9 0.00 0.00 0.00 79 999.3
20260902130503 78 175 0.9 0.9 0.00 0.00 0.00 80 999.1
20260902125504 77 128 0.0 0.9 0.00 0.00 0.00 82 999.2
20260902124504 76 124 0.0 0.0 0.00 0.00 0.00 84 999.1
20260902124003 76 124 0.0 0.0 0.00 0.00 0.00 84 999.0
20260902123503 76 125 0.0 0.0 0.00 0.00 0.00 84 999.0
20260902123003 76 125 0.0 0.0 0.00 0.00 0.00 84 999.1
20260902122503 76 125 0.0 0.9 0.00 0.00 0.00 83 998.7
20260902122004 76 107 0.0 0.9 0.00 0.00 0.00 83 998.7
20260902121504 77 116 0.0 0.9 0.00 0.00 0.00 82 998.9
20260902121003 77 263 0.0 0.9 0.00 0.00 0.00 81 998.8
20260902120503 77 80 0.9 4.3 0.00 0.00 0.00 80 998.6
20260902120003 78 86 0.0 0.9 0.00 0.00 0.00 79 998.6
20260902115504 78 94 0.9 1.7 0.00 0.00 0.00 79 998.6
20260902115004 78 95 0.0 0.9 0.00 0.00 0.00 79 998.6
20260902114004 78 174 0.9 0.9 0.00 0.00 0.00 79 998.6
20260902113503 78 121 0.0 0.9 0.00 0.00 0.00 79 998.5
20260902113003 78 138 0.9 1.7 0.00 0.00 0.00 79 998.4
20260902112503 78 173 0.9 2.6 0.00 0.00 0.00 79 998.6
20260902112003 77 177 0.9 2.6 0.00 0.00 0.00 80 998.7
20260902111503 77 147 0.9 1.7 0.00 0.00 0.00 81 998.6
20260902111004 77 132 0.0 0.9 0.00 0.00 0.00 82 998.8
20260902105504 76 146 0.0 0.0 0.00 0.00 0.00 84 998.7
20260902105004 76 146 0.0 0.0 0.00 0.00 0.00 84 998.7
20260902104503 77 146 0.0 0.0 0.00 0.00 0.00 84 998.6
20260902104003 77 146 0.0 0.0 0.00 0.00 0.00 84 998.5
20260902103503 77 146 0.0 0.0 0.00 0.00 0.00 84 998.5
20260902103003 77 146 0.0 0.0 0.00 0.00 0.00 84 998.4
20260902101503 77 145 0.0 0.0 0.00 0.00 0.00 84 998.7
20260902101003 77 145 0.0 0.0 0.00 0.00 0.00 84 998.6
20260902100504 77 145 0.0 0.0 0.00 0.00 0.00 84 998.5
20260902100004 77 145 0.0 0.0 0.00 0.00 0.00 83 998.7
20260902095504 77 145 0.0 0.0 0.00 0.00 0.00 83 998.6
20260902094503 77 145 0.0 0.0 0.00 0.00 0.00 83 998.8
20260902094003 77 145 0.0 0.0 0.00 0.00 0.00 82 998.7
20260902093503 77 145 0.0 0.0 0.00 0.00 0.00 82 998.7
20260902093003 78 145 0.0 0.0 0.00 0.00 0.00 81 998.8
20260902092504 78 145 0.9 0.9 0.00 0.00 0.00 81 998.5
20260902092004 78 145 0.9 0.9 0.00 0.00 0.00 81 998.7
20260902091504 78 144 0.9 0.9 0.00 0.00 0.00 81 998.6
20260902091004 78 144 0.9 0.9 0.00 0.00 0.00 82 998.9
20260902090503 78 144 0.0 0.9 0.00 0.00 0.00 81 998.9
20260902090003 78 144 0.0 0.9 0.00 0.00 0.00 81 998.7
20260902085503 78 144 0.0 0.9 0.00 0.00 0.00 81 998.9
20260902085003 78 144 0.0 1.7 0.00 0.00 0.00 81 998.6
20260902084503 78 146 0.9 1.7 0.00 0.00 0.00 81 998.7
20260902084004 78 137 0.0 0.9 0.00 0.00 0.00 80 998.8
20260902083504 78 134 0.0 1.7 0.00 0.00 0.00 80 998.8
20260902083004 78 146 0.9 1.7 0.00 0.00 0.00 80 998.8
20260902082504 78 118 0.0 0.9 0.00 0.00 0.00 80 998.6
20260902080503 79 148 0.9 1.7 0.00 0.00 0.00 79 998.6
20260902080003 79 128 0.9 1.7 0.00 0.00 0.00 78 998.8
20260902075503 79 121 0.0 0.9 0.00 0.00 0.00 78 998.8
20260902075003 79 134 0.9 1.7 0.00 0.00 0.00 78 998.9
20260902074503 79 140 0.9 1.7 0.00 0.00 0.00 78 999.0
20260902074004 80 135 0.0 0.9 0.00 0.00 0.00 78 998.8
20260902073504 80 139 0.9 1.7 0.00 0.00 0.00 78 998.8
20260902073004 80 154 0.9 1.7 0.00 0.00 0.00 77 999.0
20260902072504 80 163 0.9 1.7 0.00 0.00 0.00 77 998.8
20260902072004 80 135 0.0 0.9 0.00 0.00 0.00 77 998.8
20260902071003 80 128 0.0 1.7 0.00 0.00 0.00 76 999.1
20260902070504 80 116 0.9 1.7 0.00 0.00 0.00 76 999.2
20260902065503 81 131 0.9 1.7 0.00 0.00 0.00 75 999.1
20260902064504 81 115 0.9 1.7 0.00 0.00 0.00 75 999.0
20260902064004 81 114 0.9 1.7 0.00 0.00 0.00 75 999.3
20260902063504 82 138 0.9 0.9 0.00 0.00 0.00 75 999.1
20260902062503 82 134 0.9 1.7 0.00 0.00 0.00 74 999.2
20260902062003 82 113 0.0 0.9 0.00 0.00 0.00 74 999.2
20260902061503 82 123 0.9 0.9 0.00 0.00 0.00 74 999.2
20260902061003 83 136 0.9 1.7 0.00 0.00 0.00 73 999.1
20260902060503 83 155 0.9 0.9 0.00 0.00 0.00 73 999.0
20260902055004 83 157 0.9 2.6 0.00 0.00 0.00 71 999.0
20260902054504 84 159 0.9 2.6 0.00 0.00 0.00 71 999.1
20260902054004 84 153 0.9 2.6 0.00 0.00 0.00 70 999.1
20260902053503 84 188 0.9 4.3 0.00 0.00 0.00 70 998.9
20260902053003 84 176 1.7 4.3 0.00 0.00 0.00 70 998.7
20260902052503 84 186 2.6 4.3 0.00 0.00 0.00 69 999.0
20260902051503 85 160 1.7 6.1 0.00 0.00 0.00 68 998.8
20260902051003 85 168 2.6 6.1 0.00 0.00 0.00 68 998.9
20260902050504 84 181 4.3 6.1 0.00 0.00 0.00 68 998.9
20260902050007 84 156 1.7 4.3 0.00 0.00 0.00 67 998.8
20260902045504 84 186 1.7 2.6 0.00 0.00 0.00 67 999.0
20260902044503 85 151 1.7 2.6 0.00 0.00 0.00 66 999.0
20260902044003 85 180 1.7 2.6 0.00 0.00 0.00 66 998.9
20260902043004 85 163 2.6 4.3 0.00 0.00 0.00 65 998.8
20260902041004 86 152 0.9 2.6 0.00 0.00 0.00 64 998.8
20260902040503 85 158 1.7 1.7 0.00 0.00 0.00 64 998.9
20260902040003 86 145 1.7 1.7 0.00 0.00 0.00 64 998.8
20260902035503 86 134 0.9 1.7 0.00 0.00 0.00 64 998.8
20260902035003 86 145 1.7 2.6 0.00 0.00 0.00 63 999.0
20260902034004 86 155 1.7 2.6 0.00 0.00 0.00 63 998.7
20260902033503 86 151 0.9 1.7 0.00 0.00 0.00 62 998.5
20260902032504 87 160 0.9 1.7 0.00 0.00 0.00 61 998.5
20260902032004 87 174 0.9 2.6 0.00 0.00 0.00 61 998.6
20260902031504 87 149 0.9 2.6 0.00 0.00 0.00 61 998.5
20260902030503 87 142 0.9 0.9 0.00 0.00 0.00 60 998.3
20260902030003 87 129 0.9 1.7 0.00 0.00 0.00 59 998.1
20260902025003 88 163 1.7 4.3 0.00 0.00 0.00 58 997.9
20260902024503 88 163 1.7 4.3 0.00 0.00 0.00 58 997.7
20260902024004 88 143 1.7 4.3 0.00 0.00 0.00 57 997.7
20260902023504 88 164 0.9 2.6 0.00 0.00 0.00 57 997.7
20260902023004 88 146 0.9 2.6 0.00 0.00 0.00 57 997.6
20260902022503 88 140 0.9 1.7 0.00 0.00 0.00 57 997.5
20260902022004 88 135 0.9 0.9 0.00 0.00 0.00 56 997.5
20260902021504 88 131 0.0 1.7 0.00 0.00 0.00 56 997.4
20260902020004 89 205 0.9 2.6 0.00 0.00 0.00 54 997.2
20260902015004 89 133 1.7 4.3 0.00 0.00 0.00 54 997.1
20260902014503 89 134 1.7 2.6 0.00 0.00 0.00 53 997.1
20260902014003 90 163 0.9 5.2 0.00 0.00 0.00 53 997.0
20260902013503 90 86 0.9 2.6 0.00 0.00 0.00 53 997.1
20260902013004 90 112 0.9 2.6 0.00 0.00 0.00 52 996.9
20260902012504 90 179 1.7 2.6 0.00 0.00 0.00 52 997.0
20260902012004 91 174 0.9 2.6 0.00 0.00 0.00 51 996.8
20260902011504 91 139 0.9 1.7 0.00 0.00 0.00 51 996.5
20260902011004 91 144 0.9 1.7 0.00 0.00 0.00 50 996.8
20260902010503 91 110 0.9 4.3 0.00 0.00 0.00 50 996.8
20260902010004 92 166 0.9 2.6 0.00 0.00 0.00 49 996.7
20260902005004 92 115 0.9 1.7 0.00 0.00 0.00 49 996.6
20260902004503 92 181 0.9 1.7 0.00 0.00 0.00 48 996.9
20260902004003 93 108 0.9 1.7 0.00 0.00 0.00 48 997.0
20260902003503 93 157 0.9 1.7 0.00 0.00 0.00 48 996.8
20260902003003 93 90 0.0 2.6 0.00 0.00 0.00 48 997.2
20260902002503 93 105 1.7 4.3 0.00 0.00 0.00 47 996.9
20260902002003 94 124 1.7 5.2 0.00 0.00 0.00 47 997.0
20260902001504 94 120 1.7 6.1 0.00 0.00 0.00 47 996.9
20260902001003 94 156 1.7 5.2 0.00 0.00 0.00 47 997.1
20260902000504 94 194 2.6 5.2 0.00 0.00 0.00 47 996.9
20260902000004 94 79 0.9 5.2 0.00 0.00 0.00 47 996.9
20260901235504 95 76 1.7 4.3 0.00 0.00 0.00 46 996.9
20260901235004 95 108 1.7 4.3 0.00 0.00 0.00 45 996.7
20260901234503 96 117 0.9 7.0 0.00 0.00 0.00 45 996.7
20260901234003 96 87 1.7 4.3 0.00 0.00 0.00 44 996.9
20260901233003 97 186 1.7 5.2 0.00 0.00 0.00 44 997.0
20260901232504 96 128 1.7 7.0 0.00 0.00 0.00 44 996.9
20260901232004 97 61 3.5 5.2 0.00 0.00 0.00 44 996.9
20260901231504 97 64 3.5 7.0 0.00 0.00 0.00 44 996.7
20260901231004 98 85 1.7 7.0 0.00 0.00 0.00 43 996.8
20260901230504 98 153 2.6 7.0 0.00 0.00 0.00 42 996.9
20260901230004 98 74 1.7 4.3 0.00 0.00 0.00 43 996.8
20260901225504 98 76 1.7 6.1 0.00 0.00 0.00 43 996.7
20260901225004 97 77 0.9 2.6 0.00 0.00 0.00 43 996.8
20260901224504 96 89 1.7 4.3 0.00 0.00 0.00 45 996.9
20260901224004 96 122 2.6 6.1 0.00 0.00 0.00 45 996.9
20260901223005 98 160 2.6 7.0 0.00 0.00 0.00 42 996.6
20260901222504 99 209 3.5 6.1 0.00 0.00 0.00 42 996.9
20260901222004 99 72 2.6 7.8 0.00 0.00 0.00 43 996.8
20260901221004 100 118 0.0 1.7 0.00 0.00 0.00 39 997.1
20260901220505 99 106 0.9 2.6 0.00 0.00 0.00 40 996.8
20260901220005 98 182 0.9 1.7 0.00 0.00 0.00 42 996.9
20260901215505 97 70 1.7 4.3 0.00 0.00 0.00 43 996.9
20260901215005 96 81 1.7 2.6 0.00 0.00 0.00 44 996.9
20260901214504 97 91 0.9 4.3 0.00 0.00 0.00 43 996.7
20260901214005 98 58 2.6 6.1 0.00 0.00 0.00 43 997.0
20260901213505 97 182 2.6 8.7 0.00 0.00 0.00 44 996.9
20260901213005 99 86 2.6 8.7 0.00 0.00 0.00 42 997.0
20260901212505 100 119 1.7 4.3 0.00 0.00 0.00 41 997.3
20260901212005 101 174 1.7 4.3 0.00 0.00 0.00 41 997.2
20260901210005 99 185 1.7 2.6 0.00 0.00 0.00 42 997.4
20260901205505 98 167 0.9 2.6 0.00 0.00 0.00 44 997.4
20260901205005 99 162 2.6 4.3 0.00 0.00 0.00 43 997.7
20260901204005 99 110 0.9 2.6 0.00 0.00 0.00 42 997.6
20260901203504 98 162 4.3 7.0 0.00 0.00 0.00 42 997.7
20260901203005 100 73 1.7 4.3 0.00 0.00 0.00 41 997.9
20260901202505 100 127 0.9 1.7 0.00 0.00 0.00 42 997.9
20260901202005 100 98 1.7 2.6 0.00 0.00 0.00 41 998.0
20260901201505 99 169 0.9 5.2 0.00 0.00 0.00 43 998.1
20260901201005 99 173 2.6 6.1 0.00 0.00 0.00 43 998.1
20260901200505 98 276 2.6 5.2 0.00 0.00 0.00 43 998.1
20260901200004 98 158 1.7 7.8 0.00 0.00 0.00 43 998.1
20260901195504 98 197 5.2 7.8 0.00 0.00 0.00 43 998.2
20260901194505 98 146 1.7 5.2 0.00 0.00 0.00 45 998.5
20260901194005 98 96 1.7 5.2 0.00 0.00 0.00 45 998.3
20260901193504 98 78 2.6 4.3 0.00 0.00 0.00 45 998.5
20260901193005 99 79 1.7 4.3 0.00 0.00 0.00 44 998.5
20260901192505 99 103 1.7 2.6 0.00 0.00 0.00 44 998.7
20260901192005 97 178 1.7 2.6 0.00 0.00 0.00 44 998.7
20260901191005 97 133 1.7 7.0 0.00 0.00 0.00 46 999.0
20260901190505 98 203 3.5 6.1 0.00 0.00 0.00 45 998.9
20260901190005 96 119 1.7 5.2 0.00 0.00 0.00 46 999.2
20260901185505 96 167 2.6 5.2 0.00 0.00 0.00 47 999.1
20260901184504 96 81 0.9 2.6 0.00 0.00 0.00 46 999.1
20260901184005 96 168 1.7 5.2 0.00 0.00 0.00 49 999.4
20260901183504 97 105 2.6 2.6 0.00 0.00 0.00 47 999.4
20260901183005 99 146 1.7 2.6 0.00 0.00 0.00 46 999.5
20260901182505 98 118 1.7 4.3 0.00 0.00 0.00 47 999.4
20260901180505 96 155 1.7 4.3 0.00 0.00 0.00 48 999.8
20260901180005 95 77 0.9 5.2 0.00 0.00 0.00 49 999.8
20260901175505 96 85 2.6 4.3 0.00 0.00 0.00 49 999.9
20260901175004 96 94 0.9 1.7 0.00 0.00 0.00 51 1000.2
20260901174505 96 131 0.9 2.6 0.00 0.00 0.00 49 1000.3
20260901174007 94 199 1.7 2.6 0.00 0.00 0.00 50 1000.2
20260901173005 95 162 2.6 4.3 0.00 0.00 0.00 51 1000.5
20260901172504 95 160 1.7 5.2 0.00 0.00 0.00 51 1000.4
20260901172005 94 178 2.6 4.3 0.00 0.00 0.00 52 1000.3
20260901171505 94 80 0.9 2.6 0.00 0.00 0.00 52 1000.4
20260901170505 94 153 0.0 2.6 0.00 0.00 0.00 53 1000.6
20260901170005 94 109 0.9 1.7 0.00 0.00 0.00 53 1000.6
20260901165004 94 143 1.7 2.6 0.00 0.00 0.00 53 1000.7
20260901164505 94 104 0.9 2.6 0.00 0.00 0.00 54 1000.8
20260901163505 93 91 0.9 1.7 0.00 0.00 0.00 55 1000.8
20260901163005 93 106 1.7 5.2 0.00 0.00 0.00 56 1001.1
20260901162505 92 83 0.9 1.7 0.00 0.00 0.00 58 1001.0
20260901162004 92 88 0.9 2.6 0.00 0.00 0.00 56 1001.0
20260901161505 93 135 0.0 1.7 0.00 0.00 0.00 57 1000.9
20260901160505 93 170 1.7 1.7 0.00 0.00 0.00 56 1001.1
20260901160005 92 102 0.9 0.9 0.00 0.00 0.00 56 1001.0
20260901155505 91 112 0.9 1.7 0.00 0.00 0.00 60 1001.2
20260901155005 91 185 0.9 1.7 0.00 0.00 0.00 61 1001.1
20260901154505 90 87 0.9 1.7 0.00 0.00 0.00 62 1001.2
20260901154005 90 170 1.7 1.7 0.00 0.00 0.00 63 1001.0
20260901153004 90 100 0.9 1.7 0.00 0.00 0.00 63 1000.9
20260901152505 89 96 0.9 1.7 0.00 0.00 0.00 65 1000.8
20260901152004 89 68 0.9 1.7 0.00 0.00 0.00 65 1001.0
20260901151505 88 103 0.9 1.7 0.00 0.00 0.00 68 1001.0
20260901151004 88 198 0.9 1.7 0.00 0.00 0.00 68 1001.1
20260901150505 86 76 0.9 2.6 0.00 0.00 0.00 71 1001.0
20260901150005 86 212 0.9 1.7 0.00 0.00 0.00 71 1001.1
20260901145005 84 259 1.7 1.7 0.00 0.00 0.00 76 1001.2
20260901144505 84 259 1.7 1.7 0.00 0.00 0.00 76 1001.1
20260901144005 84 259 1.7 1.7 0.00 0.00 0.00 76 1001.0
20260901143505 84 259 1.7 1.7 0.00 0.00 0.00 76 1001.1
20260901143005 84 259 1.7 1.7 0.00 0.00 0.00 76 1001.2
20260901142505 76 136 0.0 0.9 0.00 0.00 0.00 91 1001.2
20260901142005 76 136 0.0 0.9 0.00 0.00 0.00 91 1001.1
20260901141505 76 136 0.0 0.9 0.00 0.00 0.00 91 1001.3
20260901141004 76 136 0.0 0.9 0.00 0.00 0.00 91 1001.4
20260901140505 76 136 0.0 0.9 0.00 0.00 0.00 91 1001.3
20260901140004 76 136 0.0 0.9 0.00 0.00 0.00 91 1001.3